Regional Weather Roundup
Issued by NWS Newport/Morehead, NC

Current Version | Previous Version | Text Only | Print | Product List | Glossary On
Versions: 1 2 3 4 5 6 7 8 9 10 11 12 13 14 15 16 17 18 19 20 21 22 23 24 25 26 27 28 29 30 31 32 33 34 35 36 37 38 39 40 41 42 43 44 45 46 47 48 49 50
000
ASUS42 KMHX 250725
RWRMHX
WEATHER ROUNDUP FOR EASTERN NORTH CAROLINA
NATIONAL WEATHER SERVICE NEWPORT/MOREHEAD CITY NC
300 AM EDT MON MAY 25 2015

NOTE: "FAIR" INDICATES FEW OR NO CLOUDS BELOW 12,000 FEET
WITH NO SIGNIFICANT WEATHER AND/OR OBSTRUCTIONS TO VISIBILITY

NCZ015>017-031-032-045>047-102-103-250800-
NORTH COAST

CITY           SKY/WX    TMP DP  RH WIND       PRES   REMARKS
EDENTON        CLEAR     66  60  81 S7        30.33S
ELIZABETH CITY CLEAR     62  58  86 S5        30.33S
KITTY HAWK     SUNNY     65  56  73 CALM      30.32F
MANTEO         CLEAR     64  57  77 S3        30.34S

$$

NCZ045>047-081-094-103-104-250800-
CENTRAL COAST

CITY           SKY/WX    TMP DP  RH WIND       PRES   REMARKS
FRISCO         PTCLDY    58  55  90 CALM      30.34S
SWANQUARTER      N/A     70 N/A N/A S7        30.30S

$$

NCZ095-097-098-100-101-250800-
SOUTHERN COAST

CITY           SKY/WX    TMP DP  RH WIND       PRES   REMARKS
BEAUFORT       CLEAR     65  57  75 CALM      30.33S
CEDAR ISLAND     N/A     66 N/A N/A S3        30.36S
JACKSONVILLE   CLEAR     61  58  90 CALM      30.33S
PINEY ISLAND   SUNNY    N/A N/A N/A S3        30.33S
WILMINGTON     CLEAR     63  59  87 CALM      30.32F


$$

NCZ011>013-027>030-043-044-078>080-089-090>093-098-250800-
COASTAL PLAIN

CITY           SKY/WX    TMP DP  RH WIND       PRES   REMARKS
AHOSKIE        CLEAR     57  54  90 CALM      30.33S
CLINTON        CLEAR     60  59  97 CALM      30.33F
ELIZABETHTOWN  CLEAR     60  58  92 CALM      30.32F
GOLDSBORO      CLEAR     61  59  92 CALM      30.31F
GREENVILLE     CLEAR     63  59  88 CALM      30.33F
HAVELOCK       CLEAR     60  57  89 CALM      30.34S
KENANSVILLE    CLEAR     57  56  94 CALM      30.34F
KINSTON        CLEAR     59  58  96 CALM      30.34S
NEW BERN       CLEAR     60  56  86 CALM      30.35S
RICHLANDS      CLEAR     57  54  88 CALM      30.34S
ROCKY MOUNT    CLEAR     62  58  86 CALM      30.33F
WASHINGTON       N/A     61  58  90 CALM      30.34S
WHITEVILLE     CLEAR     58  56  94 CALM      30.32S

$$

AMZ130-135-150-152-154-156-158-170-250-252-270-ANZ085-086-088-633-658-670-250800-
MARINE OBSERVATIONS

STATION/POSITION TIME  TEMP    WIND        PRES    WAVE   SWELL
                       AIR SEA DIR/SP/G            HT/PER HT/PER
                 (UTC) (F)     (DEG/KT/KT) (MB)    (FT/S) (FT/S)
CHESAPEAKE LIGHT 0700   65     190/ 15/ 15 1026.9
64 E VA BEACH    0650   64 62  190/  8/  8 1026.6    1/ 7   2/ 7
DUCK             0700   66 62  170/  7/  8 1026.0
2 E DUCK         0611      63                N/A     1/ 7
OREGON INLET     0700   65 74  130/  4/  5 1027.1
13E OREGON INLT  0700      66                N/A     2/ 8
HATTERAS CG      0700   72 75  140/  3/  3 1026.7
DIAMOND BUOY     0650   74 77  140/  8/ 10 1027.0    2/ 8   2/ 8
CAPE LOOKOUT     0700   72     150/  7/  8 1026.9
BEAUFORT LAB     0700   71 74  150/  4/  5 1026.3
27 SE WRIGHTSVLE 0700   70 76  160/ 10/ 12   N/A
5 SE WRIGHTSVLE  0608   74 76  160/ 10/ 14 1026.7
225 S CAPE HAT   0650   73 74  110/ 14/ 16 1026.2    4/ 6   2/ 8
41 SE CHARLESTON 0650   74 75  110/ 14/ 16 1024.9    5/ 7   3/ 7

$$


USA.gov is the U.S. government's official web portal to all federal, state and local government web resources and services.